Regional Weather Roundup
Issued by NWS

Home | Current Version | Previous Version | Text Only | Print | Product List | Glossary Off
Versions: 1 2 3 4 5 6 7 8 9 10 11 12 13 14 15 16 17 18 19 20 21 22 23 24 25 26 27 28 29 30 31 32 33 34 35 36 37 38 39 40 41 42 43 44 45 46 47 48 49 50

000
ASUS43 KDTX 201101
RWRMI
MICHIGAN HOURLY REGIONAL WEATHER ROUNDUP
NATIONAL WEATHER SERVICE DETROIT/PONTIAC MI
700 AM EDT FRI APR 20 2018

NOTE: "FAIR" INDICATES FEW OR NO CLOUDS BELOW 12,000 FEET WITH NO
SIGNIFICANT WEATHER AND/OR OBSTRUCTION TO VISIBILITY.

MIZ047>049-052>055-059>063-066>070-074>076-081>083-201200-
SOUTHEAST LOWER MICHIGAN

CITY           SKY/WX    TMP DP  RH WIND       PRES   REMARKS
ADRIAN         FAIR      32  19  58 NW9       30.45R WCI  24
ANN ARBOR      FAIR      32  19  58 NW5       30.42R WCI  27
BAD AXE        FAIR      29  22  74 CALM      30.41R
CARO           FAIR      26  22  83 CALM      30.41R
DETROIT CITY   FAIR      33  20  58 NW5       30.42R WCI  29
DETROIT        FAIR      33  19  56 NW3       30.42R
FLINT          FAIR      28  19  69 W5        30.43R WCI  23
GROSSE ILE     FAIR      30  22  72 N5        30.42R WCI  25
HILLSDALE      FAIR      30  19  64 CALM      30.43R
HOWELL         FAIR      29  20  70 W7        30.43R WCI  21

CITY           SKY/WX    TMP DP  RH WIND       PRES   REMARKS
JACKSON        FAIR      28  19  69 W3        30.44R
LAMBERTVILLE   FAIR      31  22  69 CALM      30.43R
LANSING        FAIR      31  18  58 W6        30.45R WCI  25
LAPEER         FAIR      26  21  80 CALM      30.41R
MASON          FAIR      31  18  59 CALM      30.44R
MT. CLEMENS    FAIR      30  22  72 NW6       30.40  WCI  24
PONTIAC        FAIR      31  20  63 NW6       30.40R WCI  25
PORT HOPE        N/A     34  28  79 N7        30.38R WCI  28
PORT HURON     FAIR      28  21  74 W5        30.41R WCI  23
TRI CITIES     FAIR      32  19  58 CALM      30.43R
MIDLAND        FAIR      26  22  85 CALM      30.43R
TROY           FAIR      34  20  56 NW6       30.43R WCI  29
SAGINAW HB     FAIR      30  21  69 W3        30.43R
$$
MIZ043>046-050>051-056>058-064>065-071>073-077>080-201200-
SOUTHWEST LOWER MICHIGAN

CITY           SKY/WX    TMP DP  RH WIND       PRES   REMARKS
BATTLE CREEK   FAIR      30  18  60 CALM      30.45R
BENTON HARBOR  FAIR      25  22  88 CALM      30.48R
BIG RAPIDS     FAIR      25  20  82 CALM      30.45R
COLDWATER      FAIR      29  21  73 CALM      30.45R
FREMONT        FAIR      27  21  79 CALM      30.46R
HOLLAND        FAIR      28  22  78 CALM      30.47R
GRAND RAPIDS   FAIR      33  19  56 NW5       30.46R WCI  29
IONIA          FAIR      30  19  64 W7        30.45R WCI  23
KALAMAZOO      FAIR      29  21  72 CALM      30.46R
LUDINGTON      FAIR      24  24  99 CALM      30.46R
MARSHALL       FAIR      27  19  70 CALM      30.45R
MOUNT PLEASANT FAIR      31  20  62 W3        30.44R
MUSKEGON       FAIR      26  20  77 CALM      30.48R
SOUTH HAVEN    FAIR      25  23  91 CALM      30.48R
$$
MIZ016>042-201200-
NORTHERN LOWER MICHIGAN

CITY           SKY/WX    TMP DP  RH WIND       PRES   REMARKS
ALPENA         FAIR      23  20  88 CALM      30.42R
BEAVER ISLAND  FAIR      23  21  90 CALM      30.45R
BELLAIRE       FAIR      19  18  94 CALM      30.47R
CADILLAC       FAIR      22  16  76 CALM      30.42R
CHARLEVOIX     FAIR      23  20  88 CALM      30.48R
FRANKFORT      FAIR      24  21  89 CALM      30.47R
GAYLORD        FAIR      21  17  84 CALM      30.41R
GRAYLING       FAIR      20  17  86 W3        30.42R
HARBOR SPRINGS FAIR      24  19  83 CALM      30.44R
HOUGHTON LAKE  FAIR      27  17  66 CALM      30.42R
MANISTEE       FAIR      20  18  92 CALM      30.47R
OSCODA         FAIR      27  17  68 CALM      30.41R
PELLSTON       FAIR      21  16  81 CALM      30.44R
ROGERS CITY    FAIR      28  23  81 W5        30.43R WCI  23
TRAVERSE CITY  FAIR      23  19  85 CALM      30.45R
$$
MIZ007>008-015-201200-
EASTERN UPPER MICHIGAN

CITY           SKY/WX    TMP DP  RH WIND       PRES   REMARKS
KINROSS        FAIR      24  23  96 N3        30.43R
MACKINAC ISLAN FAIR      27  23  85 CALM      30.43R
NEWBERRY       FAIR      21  20  97 CALM      30.43R
S. S. MARIE    FAIR      27  24  89 W5        30.42R WCI  22
MUNISING         N/A     22  16  78 S8        30.44R WCI  12
$$
MIZ004>006-011>014-085-201200-
CENTRAL UPPER MICHIGAN

CITY           SKY/WX    TMP DP  RH WIND       PRES   REMARKS
MANISTIQUE     FAIR      22  17  83 CALM      30.44R
ESCANABA       FAIR      21  17  84 W3        30.45R
MENOMINEE      FAIR      21  18  88 CALM      30.47R
SAWYER-GWINN   CLEAR     21   7  53 CALM      30.42R
$$
MIZ001>003-009>011-084-201200-
WESTERN UPPER MICHIGAN

CITY           SKY/WX    TMP DP  RH WIND       PRES   REMARKS
IRON MOUNTAIN  FAIR      21  14  74 CALM      30.42S
HOUGHTON       FAIR      32  11  41 NW12      30.40R WCI  23
COPPER HARBOR    N/A     28  15  58 SW7       30.41R WCI  21
IRONWOOD       FAIR      21  15  78 CALM      30.43S
$$

ABBREVIATIONS USED IN REMARKS
   TC - TEMPERATURE IN CELSIUS
  WCI - WIND CHILL INDEX
   HX - HEAT INDEX
  VSB - VISIBILITY




USA.gov is the U.S. government's official web portal to all federal, state and local government web resources and services.